When you browse on this site, cookies collect data to enhance your experience and personalize the content and advertising you see.
Visit our Privacy Policy to learn more. By continuing to use the site, you agree to this use of cookies and data.
  • In Hungary
  • List of Countries
  • For 7 days
  • Water Temperature
  • Satellite Maps
  • Weather Map
  • News
  • Weather Widgets
  • user-avatar
    Login

    Hourly Weather Granada

    Today, 18 November, Sunday

    Time Temperature Precipitation Wind Pressure Humidity
    00:00 +27°C° 0 mm 5 mps 754 mmHg 82%
    01:00 +27°C° 0 mm 5 mps 754 mmHg 81%
    02:00 +27°C° 0 mm 5 mps 753 mmHg 81%
    03:00 +27°C° 0 mm 5 mps 753 mmHg 81%
    04:00 +27°C° 0 mm 5 mps 754 mmHg 81%
    05:00 +27°C° 0 mm 5 mps 754 mmHg 81%
    06:00 +27°C° 0 mm 5 mps 754 mmHg 83%
    07:00 +28°C° 0 mm 5 mps 754 mmHg 78%
    08:00 +29°C° 0 mm 6 mps 755 mmHg 74%
    09:00 +32°C° 0 mm 7 mps 755 mmHg 69%
    10:00 +32°C° 0 mm 7 mps 754 mmHg 67%
    11:00 +33°C° 0 mm 7 mps 754 mmHg 64%
    12:00 +34°C° 0 mm 7 mps 753 mmHg 62%
    13:00 +34°C° 0 mm 7 mps 753 mmHg 62%
    14:00 +34°C° 0 mm 6 mps 752 mmHg 63%
    15:00 +34°C° 0 mm 6 mps 752 mmHg 64%
    16:00 +32°C° 0 mm 6 mps 752 mmHg 68%
    17:00 +30°C° 0 mm 5 mps 752 mmHg 73%
    18:00 +29°C° 0 mm 4 mps 753 mmHg 77%
    19:00 +29°C° 0 mm 4 mps 753 mmHg 78%
    20:00 +28°C° 0 mm 5 mps 754 mmHg 79%
    21:00 +28°C° 0 mm 5 mps 754 mmHg 81%
    22:00 +28°C° 0 mm 5 mps 754 mmHg 81%
    23:00 +27°C° 0 mm 4 mps 754 mmHg 82%

    Tomorrow, 19 November, Monday

    Time Temperature Precipitation Wind Pressure Humidity
    00:00 +27°C° 0 mm 4 mps 754 mmHg 82%
    01:00 +27°C° 0.1 mm 4 mps 754 mmHg 82%
    02:00 +27°C° 0.1 mm 4 mps 753 mmHg 82%
    03:00 +27°C° 0.1 mm 4 mps 753 mmHg 82%
    04:00 +27°C° 0.1 mm 4 mps 753 mmHg 82%
    05:00 +27°C° 0.1 mm 4 mps 754 mmHg 82%
    06:00 +27°C° 0.1 mm 5 mps 754 mmHg 82%
    07:00 +28°C° 0.1 mm 5 mps 754 mmHg 78%
    08:00 +29°C° 0.1 mm 6 mps 754 mmHg 74%
    09:00 +30°C° 0.1 mm 7 mps 755 mmHg 70%
    10:00 +32°C° 0.1 mm 7 mps 754 mmHg 67%
    11:00 +33°C° 0.1 mm 7 mps 754 mmHg 64%
    12:00 +34°C° 0.1 mm 6 mps 754 mmHg 61%
    13:00 +34°C° 0.1 mm 6 mps 753 mmHg 62%
    14:00 +33°C° 0.1 mm 6 mps 752 mmHg 64%
    15:00 +33°C° 0.1 mm 6 mps 752 mmHg 65%
    16:00 +32°C° 0.1 mm 5 mps 752 mmHg 69%
    17:00 +30°C° 0.1 mm 5 mps 752 mmHg 73%
    18:00 +29°C° 0.1 mm 4 mps 753 mmHg 77%
    19:00 +28°C° 0 mm 4 mps 753 mmHg 77%
    20:00 +28°C° 0 mm 4 mps 754 mmHg 78%
    21:00 +28°C° 0 mm 4 mps 755 mmHg 78%
    22:00 +28°C° 0 mm 4 mps 754 mmHg 79%
    23:00 +27°C° 0 mm 4 mps 754 mmHg 80%

    Day after tomorrow, 20 November, Tuesday

    Time Temperature Precipitation Wind Pressure Humidity
    00:00 +27°C° 0 mm 4 mps 754 mmHg 81%
    01:00 +27°C° 0 mm 4 mps 754 mmHg 82%
    02:00 +27°C° 0 mm 4 mps 754 mmHg 83%
    03:00 +26°C° 0 mm 4 mps 753 mmHg 83%
    04:00 +26°C° 0 mm 4 mps 753 mmHg 83%
    05:00 +26°C° 0 mm 4 mps 754 mmHg 83%
    06:00 +26°C° 0 mm 4 mps 754 mmHg 83%
    07:00 +28°C° 0 mm 5 mps 754 mmHg 78%
    08:00 +29°C° 0 mm 5 mps 755 mmHg 73%
    09:00 +32°C° 0 mm 6 mps 755 mmHg 68%
    10:00 +32°C° 0 mm 6 mps 755 mmHg 65%
    11:00 +33°C° 0 mm 6 mps 754 mmHg 63%
    12:00 +34°C° 0 mm 6 mps 754 mmHg 60%
    13:00 +34°C° 0 mm 6 mps 753 mmHg 60%
    14:00 +34°C° 0 mm 6 mps 753 mmHg 61%
    15:00 +34°C° 0 mm 6 mps 752 mmHg 62%
    16:00 +32°C° 0.1 mm 5 mps 752 mmHg 67%
    17:00 +30°C° 0.1 mm 5 mps 753 mmHg 72%
    18:00 +28°C° 0.1 mm 5 mps 753 mmHg 78%
    19:00 +28°C° 0 mm 5 mps 754 mmHg 79%
    20:00 +28°C° 0 mm 5 mps 755 mmHg 80%
    21:00 +27°C° 0 mm 4 mps 755 mmHg 82%
    22:00 +27°C° 0 mm 4 mps 755 mmHg 81%
    23:00 +27°C° 0 mm 4 mps 755 mmHg 81%

    21 November, Wednesday

    Time Temperature Precipitation Wind Pressure Humidity
    00:00 +27°C° 0 mm 4 mps 755 mmHg 81%
    01:00 +27°C° 0 mm 4 mps 755 mmHg 81%
    02:00 +27°C° 0 mm 4 mps 754 mmHg 81%
    03:00 +27°C° 0 mm 4 mps 754 mmHg 82%
    04:00 +27°C° 0.1 mm 4 mps 754 mmHg 82%
    05:00 +27°C° 0.1 mm 4 mps 754 mmHg 81%
    06:00 +27°C° 0.1 mm 4 mps 755 mmHg 81%
    07:00 +28°C° 0.1 mm 5 mps 755 mmHg 77%
    08:00 +29°C° 0.1 mm 6 mps 756 mmHg 73%
    09:00 +30°C° 0.1 mm 7 mps 756 mmHg 69%
    10:00 +32°C° 0.1 mm 7 mps 756 mmHg 66%
    11:00 +33°C° 0.1 mm 7 mps 755 mmHg 63%
    12:00 +33°C° 0.1 mm 7 mps 754 mmHg 60%
    13:00 +33°C° 0.2 mm 7 mps 754 mmHg 61%
    14:00 +33°C° 0.2 mm 6 mps 753 mmHg 62%
    15:00 +33°C° 0.2 mm 6 mps 752 mmHg 63%
    16:00 +32°C° 0.3 mm 5 mps 753 mmHg 67%
    17:00 +30°C° 0.3 mm 5 mps 753 mmHg 70%
    18:00 +29°C° 0.3 mm 4 mps 754 mmHg 73%
    19:00 +28°C° 0.1 mm 4 mps 754 mmHg 74%
    20:00 +28°C° 0.1 mm 4 mps 755 mmHg 75%
    21:00 +28°C° 0.1 mm 4 mps 756 mmHg 76%
    22:00 +27°C° 0 mm 4 mps 755 mmHg 77%
    23:00 +27°C° 0 mm 4 mps 755 mmHg 78%

    22 November, Thursday

    Time Temperature Precipitation Wind Pressure Humidity
    00:00 +27°C° 0 mm 4 mps 755 mmHg 78%
    01:00 +27°C° 0 mm 4 mps 755 mmHg 79%
    02:00 +26°C° 0 mm 4 mps 754 mmHg 79%
    03:00 +26°C° 0 mm 4 mps 754 mmHg 80%
    04:00 +26°C° 0 mm 3 mps 754 mmHg 80%
    05:00 +26°C° 0 mm 3 mps 754 mmHg 81%
    06:00 +26°C° 0 mm 3 mps 754 mmHg 81%
    07:00 +27°C° 0 mm 4 mps 755 mmHg 75%
    08:00 +29°C° 0 mm 5 mps 755 mmHg 68%
    09:00 +30°C° 0 mm 6 mps 756 mmHg 62%
    10:00 +32°C° 0 mm 6 mps 755 mmHg 59%
    11:00 +33°C° 0 mm 6 mps 754 mmHg 57%
    12:00 +34°C° 0 mm 6 mps 754 mmHg 54%
    13:00 +34°C° 0 mm 6 mps 753 mmHg 54%
    14:00 +34°C° 0 mm 6 mps 752 mmHg 55%
    15:00 +34°C° 0 mm 5 mps 752 mmHg 56%
    16:00 +33°C° 0.2 mm 5 mps 752 mmHg 62%
    17:00 +30°C° 0.2 mm 4 mps 753 mmHg 67%
    18:00 +29°C° 0.2 mm 4 mps 753 mmHg 73%
    19:00 +28°C° 0 mm 4 mps 754 mmHg 74%
    20:00 +28°C° 0 mm 4 mps 754 mmHg 75%
    21:00 +28°C° 0 mm 4 mps 755 mmHg 76%
    22:00 +27°C° 0 mm 4 mps 755 mmHg 77%
    23:00 +27°C° 0 mm 4 mps 754 mmHg 78%

    23 November, Friday

    Time Temperature Precipitation Wind Pressure Humidity
    00:00 +27°C° 0 mm 4 mps 754 mmHg 79%
    01:00 +27°C° 0 mm 4 mps 754 mmHg 79%
    02:00 +27°C° 0 mm 4 mps 753 mmHg 80%
    03:00 +26°C° 0 mm 4 mps 753 mmHg 81%
    04:00 +26°C° 0 mm 4 mps 753 mmHg 81%
    05:00 +26°C° 0 mm 4 mps 753 mmHg 81%
    06:00 +26°C° 0 mm 4 mps 754 mmHg 81%
    07:00 +27°C° 0 mm 5 mps 754 mmHg 75%
    08:00 +29°C° 0 mm 5 mps 755 mmHg 70%
    09:00 +30°C° 0 mm 6 mps 755 mmHg 64%
    10:00 +32°C° 0 mm 6 mps 754 mmHg 62%
    11:00 +33°C° 0 mm 6 mps 754 mmHg 59%
    12:00 +34°C° 0 mm 6 mps 753 mmHg 57%
    13:00 +34°C° 0 mm 6 mps 752 mmHg 58%
    14:00 +34°C° 0 mm 6 mps 752 mmHg 59%
    15:00 +34°C° 0 mm 5 mps 751 mmHg 59%
    16:00 +32°C° 0 mm 5 mps 751 mmHg 64%
    17:00 +30°C° 0 mm 4 mps 752 mmHg 70%
    18:00 +29°C° 0 mm 4 mps 753 mmHg 75%
    19:00 +28°C° 0 mm 4 mps 753 mmHg 76%
    20:00 +28°C° 0 mm 4 mps 754 mmHg 77%
    21:00 +28°C° 0 mm 4 mps 754 mmHg 78%
    22:00 +27°C° 0 mm 4 mps 754 mmHg 80%
    23:00 +27°C° 0 mm 4 mps 754 mmHg 82%
    Show more